Current Version              Previous Version:    01  02  03  04  05  06  07  08  09  10  11  12  13  14  15  16  17  18  19  20  21  22  23  24  25  26  27  28  29  30  
   31  32  33  34  35  36  37  38  39  40  41  42  43  44  45  46  47  48  49  50  51  52  53  54  55  56  57  58  59  60  

[Printable]
666
ASUS44 KLUB 311610
RWRTX
WEST TEXAS WEATHER ROUNDUP
NATIONAL WEATHER SERVICE LUBBOCK TX
1100 AM CDT FRI OCT 31 2014

NOTE: "FAIR" INDICATES FEW OR NO CLOUDS BELOW 12,000 FEET WITH NO
SIGNIFICANT WEATHER AND/OR OBSTRUCTIONS TO VISIBILITY.

TXZ004-006>008-010-012-014-016-OKZ002-311700-
TEXAS PANHANDLE/OKLAHOMA PANHANDLE

CITY           SKY/WX    TMP DP  RH WIND       PRES   REMARKS
AMARILLO       SUNNY     50  30  46 NE12      30.48S
BORGER         SUNNY     47  31  53 NE6       30.50R
CANADIAN       SUNNY     47  35  62 NE7       30.48F
DALHART        SUNNY     46  30  53 E9        30.50R
DUMAS            N/A     46  29  51 E9        30.49S
GUYMON         SUNNY     45  32  60 E7        30.50S
HEREFORD       SUNNY     53  35  50 NE10      30.48S
PAMPA          SUNNY     46  32  57 NE6       30.49S
PERRYTON       SUNNY     45  31  60 NE10      30.49S
$$

TXZ026-029-035-045-048-311700-
SOUTHERN PANHANDLE/SOUTH PLAINS/ROLLING PLAINS

CITY           SKY/WX    TMP DP  RH WIND       PRES   REMARKS
CHILDRESS      SUNNY     54  35  48 NE12G22   30.47R
SEMINOLE       SUNNY     58  32  37 E13       30.45S
LUBBOCK        MOSUNNY   56  34  43 E15       30.44S
PLAINVIEW      SUNNY     55  33  43 E12       30.44S
SNYDER         SUNNY     56  36  47 NE14G20   30.44R
$$

TXZ052-054-060>062-072-078-127-140-154-169-311700-
PERMIAN BASIN/CONCHO VALLEY/BIG COUNTRY/EDWARDS PLATEAU

CITY           SKY/WX    TMP DP  RH WIND       PRES   REMARKS
ABILENE        SUNNY     61  36  39 NE12      30.40S
BIG SPRING     SUNNY     60  33  37 NE14G22   30.44S
BRADY          SUNNY     64  36  34 NE17      30.35S
BROWNWOOD      SUNNY     63  39  42 N12       30.38R
JUNCTION       SUNNY     69  37  30 NE16G22   30.35R
MIDLAND        SUNNY     61  35  37 E17       30.41S
ODESSA         SUNNY     61  33  35 E18       30.42R
SAN ANGELO     SUNNY     66  34  30 NE14      30.39R
SONORA         SUNNY     68  36  30 NE14      30.41R
SWEETWATER     SUNNY     58  36  42 NE15      30.45R
WINK           CLOUDY    64  35  34 E9        30.40R
$$

TXZ055-058-074-075-080-082-311700-
FAR WEST/SOUTHWEST MOUNTAINS/TRANS PECOS

CITY           SKY/WX    TMP DP  RH WIND       PRES   REMARKS
ALPINE         PTSUNNY   62  47  59 NE10      30.47S
DRYDEN           N/A     70  41  34 NE12      30.36R
EL PASO        MOSUNNY   64  36  35 E14       30.34S
FORT STOCKTON  MOSUNNY   65  36  34 E14       30.40R
GUADALUPE PASS SUNNY     55  32  41 NE33G41   30.42S
MARFA          CLOUDY    57  48  72 NE17      30.43S
PECOS          MOSUNNY   62  38  42 E9        30.41R
PRESIDIO       CLOUDY    68  56  63 NE15G21   30.32S
$$

TXZ014-016-019-021>030-083-311700
TEXAS TECH WEST TEXAS MESONET/TEXAS PANHANDLE/NORTHERN SOUTH PLAINS

CITY           SKY/WX    TMP DP  RH WIND       PRES   REMARKS
ABERNATHY 5ENE   N/A     55  33  43 NE16      30.46R
AMARILLO 9NNE    N/A     50  31  48 NE8       30.48F
AMARILLO 7SSE    N/A     51  31  46 NE9       30.49S
AMHERST 1NE      N/A     53  33  46 E13       30.46S
BOOTLEG 11WNW    N/A     51  30  44 E12       30.50S
CANADIAN 6E      N/A     48  32  54 N13       30.47S
CAPROCK CYN SP   N/A     53  30  40 NE8       30.48S
CHILDRESS 2NNE   N/A     53  35  49 NE12      30.46S
CLARENDON 2WSW   N/A     52  28  40 NE13      30.47R
CLAUDE 12SW      N/A     51  30  44 NE9       30.47S
DIMMITT 2NE      N/A     51  32  49 E10       30.47S
FLOYDADA 2NNE    N/A     54  29  38 NE14      30.45S
FRIONA 2NE       N/A     51  33  49 E9        30.48S
GOODLETT 3W      N/A     53  36  51 N14       30.45S
HART 3N          N/A     52  32  46 NE12      30.47R
HEREFORD 2NW     N/A     51  31  47 E9        30.47S
MCLEAN 1E        N/A     49  31  49 NE9       30.45S
MEMPHIS 1NE      N/A     54  32  43 N12       30.47R
MULESHOE 2SSW    N/A     53  33  45 E13       30.46F
OLTON 6S         N/A     53  32  44 NE12      30.46R
PALO DURO SP     N/A     52  30  41 NE6       30.49F
PAMPA 2E         N/A     47  32  54 N8        30.48S
PLAINVIEW 1S     N/A     53  33  46 E14       30.45S
SILVERTON 7ESE   N/A     53  29  39 NE12      30.46F
TULIA 2ENE       N/A     52  29  41 E15       30.46S
TURKEY 2WSW      N/A     54  30  40 NE10      30.47S
UMBARGER 3NNE    N/A     51  29  43 E8        30.48S
$$

TXZ033>036-039>041-045>048-311700
TEXAS TECH WEST TEXAS MESONET/SOUTH PLAINS

CITY           SKY/WX    TMP DP  RH WIND       PRES   REMARKS
AIKEN 3WSW       N/A     54  30  40 NE17      30.47S
ANTON 6SSW       N/A     55  35  47 NE15      30.45S
BROWNFIELD 2S    N/A     55  32  42 E13       30.45S
DENVR CTY 7WNW   N/A     56  30  37 E13       30.45R
GAIL 2ESE        N/A     57  37  46 NE10      30.43R
LAMESA 2SE       N/A     57  35  43 NE9       30.44S
LEVELLAND 4S     N/A     55  32  41 E10       30.46R
LUBBOCK 3WNW     N/A     56  33  41 E13       30.45S
MORTON 1ENE      N/A     54  32  43 E12       30.46S
ODONNELL 1N      N/A     56  32  40 E15       30.44R
PLAINS 3N        N/A     57  31  38 E12       30.45R
RALLS 1SE        N/A     56  32  40 NE14      30.45S
REESE CENTER     N/A     55  34  44 E12       30.45R
SEMINOLE 2NNE    N/A     58  31  37 E14       30.44S
SLATON 2NE       N/A     55  33  41 NE13      30.45R
SNYDER 3E        N/A     57  37  48 NE13      30.42S
SUNDOWN 8SW      N/A     56  32  39 E10       30.45S
TAHOKA 3NNE      N/A     56  33  41 NE15      30.44R
WOLFFORTH 6SSW   N/A     56  34  43 E12       30.45R
$$

TXZ031-032-036>038-042>044-311700-
TEXAS TECH WEST TEXAS MESONET/ROLLING PLAINS

CITY           SKY/WX    TMP DP  RH WIND       PRES   REMARKS
ASPERMONT 3NE    N/A     58  36  44 N12       30.44S
FLUVANNA 3WNW    N/A     55  35  47 NE15      30.43S
GRAHAM 5SSW      N/A     55  33  44 E16       30.44R
GUTHRIE 10WSW    N/A     56  32  40 N14       30.44S
HASKELL 1NW      N/A     58  35  42 NE16      30.42S
JAYTON 1SSE      N/A     56  36  46 NE9       30.44S
KNOX CITY 3NW    N/A     58  33  39 N14       30.44S
LK A HENRY 1NW   N/A     58  36  43 NE13      30.44R
NORTHFIELD 1S    N/A     55  33  43 N8        30.47S
ODELL 4ENE       N/A     53  39  58 N14       30.46R
PADUCAH 10SW     N/A     56  33  41 N8        30.46S
POST 1NE         N/A     58  35  42 NE13      30.44S
RRING SPRGS 3N   N/A     54  32  43 NE12      30.46S
SEYMOUR 3NW      N/A     56  36  47 N15       30.44R
SPUR 1W          N/A     56  32  40 NE14      30.43S
WEINERT 2NNE     N/A     57  35  43 NE12      30.44R
WHITE RVR 6NE    N/A     57  33  40 NE9       30.44S
$$

TXZ052-054-060>062-072-078-127-140-154-169-311700-
TEXAS TECH WEST TEXAS MESONET/PERMIAN BASIN/
CONCHO VALLEY/BIG COUNTRY/EDWARDS PLATEAU

CITY           SKY/WX    TMP DP  RH WIND       PRES   REMARKS
COYANOSA 2N      N/A     65  37  36 E10       30.41R
JUNCTION 1SSW    N/A     68  39  34 N15       30.35S
MERTZON 3NNE     N/A     66  34  30 NE9       30.40S
SAN ANGELO 7NW   N/A     65  33  29 NE12      30.39S
STRLNG CT 4WSW   N/A     63  35  34 N9        30.41S
ST LAWRNCE 5SW   N/A     62  32  31 NE15      30.41R
SWEETWATR 11SW   N/A     58  37  45 NE13      30.43R
WALL 1E          N/A     65  35  32 NE10      30.40R
$$

TXZ055-058-074-075-080-082-311700-
TEXAS TECH WEST TEXAS MESONET/FAR WEST/SOUTHWEST MOUNTAINS/TRANS PECOS

CITY           SKY/WX    TMP DP  RH WIND       PRES   REMARKS
PRSMN GAP BBNP   N/A     67  50  53 NE17      30.35S
GUADLPE MTN NP   N/A     54  31  41 NE12      30.48S
$$